sat.trackr.live / text

‹ back to catalog

STARLINK-3585

NORAD 51875 · 2022-022Z

PAYLOAD ACTIVE UNKNOWN

§ Identity

Operator
Country
US
Launch date
2022-03-03
Launch site
AFETR
Launch vehicle
Mass (kg)
RCS (m²)

Purposes: comms

External: N2YO · Heavens-Above · Gunter

§ Orbital elements

Epoch: 2026-05-25T02:18:07.242624Z

Period
95.44 min
Inclination
53.2128°
Eccentricity
0.0001358
Mean motion
15.08836557 rev/d
Perigee alt
538.8 km
Apogee alt
540.7 km
Semi-major
6,917.9 km
B*
4.4313e-5
RAAN
26.0301°
Arg perigee
75.3499°
Mean anomaly
284.7644°
Rev number
23,465

§ Raw data

STARLINK-35851 51875U 22022Z   26145.09591716  .00000417  00000+0  44313-4 0  99902 51875  53.2128  26.0301 0001358  75.3499 284.7644 15.08836557234658

JSON: /api/v1/satellites/51875 · /tle

For live sub-satellite position, see the globe view (requires WebGL).

§ Visibility from observer

Set your observer location to see the next 7 days of passes ≥ 10°. The values pass through the URL so the page stays shareable.

No JS? Fill the form by hand. The geolocation button needs JavaScript.